owner,sensor,date,latitude,longitude,vertical_datum,sea_water_practical_salinity,qcFlag 
DISL,ioos:station:DISL:KATA:1,2016-01-01T00:00:00Z,30.2583,-88.2131,4.1,22.0,11111222 
DISL,ioos:station:DISL:KATA:1,2016-01-01T00:30:00Z,30.2583,-88.2131,4.1,22.0,11111222 
DISL,ioos:station:DISL:KATA:1,2016-01-01T01:00:00Z,30.2583,-88.2131,4.1,22.0,11111222 
DISL,ioos:station:DISL:KATA:1,2016-01-01T01:30:00Z,30.2583,-88.2131,4.0,21.8,11111222 
DISL,ioos:station:DISL:KATA:1,2016-01-01T02:00:00Z,30.2583,-88.2131,4.0,22.3,11111222 
DISL,ioos:station:DISL:KATA:1,2016-01-01T02:30:00Z,30.2583,-88.2131,4.0,21.9,11111222 
DISL,ioos:station:DISL:KATA:1,2016-01-01T03:00:00Z,30.2583,-88.2131,4.0,22.5,11111222 
DISL,ioos:station:DISL:KATA:1,2016-01-01T03:30:00Z,30.2583,-88.2131,4.0,23.4,11111222 
DISL,ioos:station:DISL:KATA:1,2016-01-01T04:00:00Z,30.2583,-88.2131,4.0,23.7,11111222 
DISL,ioos:station:DISL:KATA:1,2016-01-01T04:30:00Z,30.2583,-88.2131,4.1,23.9,11111222 
DISL,ioos:station:DISL:KATA:1,2016-01-01T05:00:00Z,30.2583,-88.2131,4.1,24.7,11111222 
DISL,ioos:station:DISL:KATA:1,2016-01-01T05:30:00Z,30.2583,-88.2131,4.1,24.9,11111222 
DISL,ioos:station:DISL:KATA:1,2016-01-01T06:00:00Z,30.2583,-88.2131,4.1,25.3,11111222 
DISL,ioos:station:DISL:KATA:1,2016-01-01T06:30:00Z,30.2583,-88.2131,4.045,25.42,1111122 
DISL,ioos:station:DISL:KATA:1,2016-01-01T07:00:00Z,30.2583,-88.2131,4.045,25.58,1111122 
DISL,ioos:station:DISL:KATA:1,2016-01-01T07:30:00Z,30.2583,-88.2131,4.036,25.63,1111122 
DISL,ioos:station:DISL:KATA:1,2016-01-01T08:00:00Z,30.2583,-88.2131,4.017,25.64,1111122 
DISL,ioos:station:DISL:KATA:1,2016-01-01T08:30:00Z,30.2583,-88.2131,4.001,25.21,1111122 
DISL,ioos:station:DISL:KATA:1,2016-01-01T09:00:00Z,30.2583,-88.2131,3.986,25.28,1111122 
DISL,ioos:station:DISL:KATA:1,2016-01-01T09:30:00Z,30.2583,-88.2131,3.95,25.15,1111122 
DISL,ioos:station:DISL:KATA:1,2016-01-01T10:00:00Z,30.2583,-88.2131,3.953,25.31,1111122 
DISL,ioos:station:DISL:KATA:1,2016-01-01T10:30:00Z,30.2583,-88.2131,3.962,25.58,1111122 
DISL,ioos:station:DISL:KATA:1,2016-01-01T11:00:00Z,30.2583,-88.2131,3.958,25.05,1111122 
DISL,ioos:station:DISL:KATA:1,2016-01-01T11:30:00Z,30.2583,-88.2131,3.934,25.06,1111122 
DISL,ioos:station:DISL:KATA:1,2016-01-01T12:00:00Z,30.2583,-88.2131,3.919,24.42,1111122 
DISL,ioos:station:DISL:KATA:1,2016-01-01T12:30:00Z,30.2583,-88.2131,3.891,24.14,1111122 
DISL,ioos:station:DISL:KATA:1,2016-01-01T13:00:00Z,30.2583,-88.2131,3.76,24.41,1111122 
DISL,ioos:station:DISL:KATA:1,2016-01-01T13:30:00Z,30.2583,-88.2131,3.812,25.76,1111122 
DISL,ioos:station:DISL:KATA:1,2016-01-01T14:00:00Z,30.2583,-88.2131,3.772,25.37,1111122 
DISL,ioos:station:DISL:KATA:1,2016-01-01T14:30:00Z,30.2583,-88.2131,3.747,25.65,1111122 
DISL,ioos:station:DISL:KATA:1,2016-01-01T15:00:00Z,30.2583,-88.2131,3.688,25.51,1111122 
DISL,ioos:station:DISL:KATA:1,2016-01-01T15:30:00Z,30.2583,-88.2131,3.679,25.61,1111122 
DISL,ioos:station:DISL:KATA:1,2016-01-01T16:00:00Z,30.2583,-88.2131,3.662,25.89,1111122 
DISL,ioos:station:DISL:KATA:1,2016-01-01T16:30:00Z,30.2583,-88.2131,3.719,24.16,1111122 
DISL,ioos:station:DISL:KATA:1,2016-01-01T17:00:00Z,30.2583,-88.2131,3.832,24.53,1111122 
DISL,ioos:station:DISL:KATA:1,2016-01-01T17:30:00Z,30.2583,-88.2131,3.953,24.86,1111122 
DISL,ioos:station:DISL:KATA:1,2016-01-01T18:00:00Z,30.2583,-88.2131,4.041,24.22,1111122 
DISL,ioos:station:DISL:KATA:1,2016-01-01T18:30:00Z,30.2583,-88.2131,4.045,24.94,1111122 
DISL,ioos:station:DISL:KATA:1,2016-01-01T19:00:00Z,30.2583,-88.2131,4.056,24.76,1111122 
DISL,ioos:station:DISL:KATA:1,2016-01-01T19:30:00Z,30.2583,-88.2131,4.039,24.9,1111122 
DISL,ioos:station:DISL:KATA:1,2016-01-01T20:00:00Z,30.2583,-88.2131,4.012,23.91,1111122 
DISL,ioos:station:DISL:KATA:1,2016-01-01T20:30:00Z,30.2583,-88.2131,3.966,24.76,1111122 
DISL,ioos:station:DISL:KATA:1,2016-01-01T21:00:00Z,30.2583,-88.2131,3.927,24.41,1111122 
DISL,ioos:station:DISL:KATA:1,2016-01-01T21:30:00Z,30.2583,-88.2131,3.904,24.77,1111122 
DISL,ioos:station:DISL:KATA:1,2016-01-01T22:00:00Z,30.2583,-88.2131,3.93,24.95,1111122 
DISL,ioos:station:DISL:KATA:1,2016-01-01T22:30:00Z,30.2583,-88.2131,3.957,24.15,1111122 
DISL,ioos:station:DISL:KATA:1,2016-01-01T23:00:00Z,30.2583,-88.2131,3.994,24.82,1111122 
DISL,ioos:station:DISL:KATA:1,2016-01-01T23:30:00Z,30.2583,-88.2131,4.073,24.43,1111122 
DISL,ioos:station:DISL:KATA:1,2016-01-02T00:00:00Z,30.2583,-88.2131,4.082,23.92,1111122 
DISL,ioos:station:DISL:KATA:1,2016-01-02T00:30:00Z,30.2583,-88.2131,4.093,24.7,1111122 
DISL,ioos:station:DISL:KATA:1,2016-01-02T01:00:00Z,30.2583,-88.2131,4.062,23.77,1111122 
DISL,ioos:station:DISL:KATA:1,2016-01-02T01:30:00Z,30.2583,-88.2131,4.0,24.55,1111122 
DISL,ioos:station:DISL:KATA:1,2016-01-02T02:00:00Z,30.2583,-88.2131,3.977,24.12,1111122 
DISL,ioos:station:DISL:KATA:1,2016-01-02T02:30:00Z,30.2583,-88.2131,3.921,24.68,1111122 
DISL,ioos:station:DISL:KATA:1,2016-01-02T03:00:00Z,30.2583,-88.2131,3.909,24.05,1111122 
DISL,ioos:station:DISL:KATA:1,2016-01-02T03:30:00Z,30.2583,-88.2131,3.9,23.25,1111122 
DISL,ioos:station:DISL:KATA:1,2016-01-02T04:00:00Z,30.2583,-88.2131,3.877,23.05,1111122 
DISL,ioos:station:DISL:KATA:1,2016-01-02T04:30:00Z,30.2583,-88.2131,3.854,23.93,1111122 
DISL,ioos:station:DISL:KATA:1,2016-01-02T05:00:00Z,30.2583,-88.2131,3.865,23.82,1111122 
DISL,ioos:station:DISL:KATA:1,2016-01-02T05:30:00Z,30.2583,-88.2131,3.902,23.13,1111122 
DISL,ioos:station:DISL:KATA:1,2016-01-02T06:00:00Z,30.2583,-88.2131,3.917,23.12,1111122 
DISL,ioos:station:DISL:KATA:1,2016-01-02T06:30:00Z,30.2583,-88.2131,3.963,23.32,1111122 
DISL,ioos:station:DISL:KATA:1,2016-01-02T07:00:00Z,30.2583,-88.2131,3.997,23.57,1111122 
DISL,ioos:station:DISL:KATA:1,2016-01-02T07:30:00Z,30.2583,-88.2131,3.987,23.85,1111122 
DISL,ioos:station:DISL:KATA:1,2016-01-02T08:00:00Z,30.2583,-88.2131,3.989,23.26,1111122 
DISL,ioos:station:DISL:KATA:1,2016-01-02T08:30:00Z,30.2583,-88.2131,3.946,23.73,1111122 
DISL,ioos:station:DISL:KATA:1,2016-01-02T09:00:00Z,30.2583,-88.2131,3.889,23.95,1111122 
DISL,ioos:station:DISL:KATA:1,2016-01-02T09:30:00Z,30.2583,-88.2131,3.878,23.99,1111122 
DISL,ioos:station:DISL:KATA:1,2016-01-02T10:00:00Z,30.2583,-88.2131,3.842,23.56,1111122 
DISL,ioos:station:DISL:KATA:1,2016-01-02T10:30:00Z,30.2583,-88.2131,3.802,23.06,1111122 
DISL,ioos:station:DISL:KATA:1,2016-01-02T11:00:00Z,30.2583,-88.2131,3.775,23.08,1111122 
DISL,ioos:station:DISL:KATA:1,2016-01-02T11:30:00Z,30.2583,-88.2131,3.761,23.59,1111122 
DISL,ioos:station:DISL:KATA:1,2016-01-02T12:00:00Z,30.2583,-88.2131,3.747,23.17,1111122 
DISL,ioos:station:DISL:KATA:1,2016-01-02T12:30:00Z,30.2583,-88.2131,3.751,23.05,1111122 
DISL,ioos:station:DISL:KATA:1,2016-01-02T13:00:00Z,30.2583,-88.2131,3.758,23.1,1111122 
DISL,ioos:station:DISL:KATA:1,2016-01-02T13:30:00Z,30.2583,-88.2131,3.773,24.03,1111122 
DISL,ioos:station:DISL:KATA:1,2016-01-02T14:00:00Z,30.2583,-88.2131,3.785,23.88,1111122 
DISL,ioos:station:DISL:KATA:1,2016-01-02T14:30:00Z,30.2583,-88.2131,3.816,23.06,1111122 
DISL,ioos:station:DISL:KATA:1,2016-01-02T15:00:00Z,30.2583,-88.2131,3.825,23.56,1111122 
DISL,ioos:station:DISL:KATA:1,2016-01-02T15:30:00Z,30.2583,-88.2131,3.824,23.49,1111122 
DISL,ioos:station:DISL:KATA:1,2016-01-02T16:00:00Z,30.2583,-88.2131,3.825,23.75,1111122 
DISL,ioos:station:DISL:KATA:1,2016-01-02T16:30:00Z,30.2583,-88.2131,3.833,23.6,1111122 
DISL,ioos:station:DISL:KATA:1,2016-01-02T17:00:00Z,30.2583,-88.2131,3.846,23.84,1111122 
DISL,ioos:station:DISL:KATA:1,2016-01-02T17:30:00Z,30.2583,-88.2131,3.867,23.71,1111122 
DISL,ioos:station:DISL:KATA:1,2016-01-02T18:00:00Z,30.2583,-88.2131,3.877,23.97,1111122 
DISL,ioos:station:DISL:KATA:1,2016-01-02T18:30:00Z,30.2583,-88.2131,3.928,24.79,1111122 
DISL,ioos:station:DISL:KATA:1,2016-01-02T19:00:00Z,30.2583,-88.2131,3.949,23.44,1111122 
DISL,ioos:station:DISL:KATA:1,2016-01-02T19:30:00Z,30.2583,-88.2131,3.96,22.53,1111122 
DISL,ioos:station:DISL:KATA:1,2016-01-02T20:00:00Z,30.2583,-88.2131,3.998,21.96,1111122 
DISL,ioos:station:DISL:KATA:1,2016-01-02T20:30:00Z,30.2583,-88.2131,3.996,22.23,1111122 
DISL,ioos:station:DISL:KATA:1,2016-01-02T21:00:00Z,30.2583,-88.2131,4.016,21.38,1111122 
DISL,ioos:station:DISL:KATA:1,2016-01-02T21:30:00Z,30.2583,-88.2131,4.025,21.67,1111122 
DISL,ioos:station:DISL:KATA:1,2016-01-02T22:00:00Z,30.2583,-88.2131,4.054,21.11,1111122 
DISL,ioos:station:DISL:KATA:1,2016-01-02T22:30:00Z,30.2583,-88.2131,4.063,20.58,1111122 
DISL,ioos:station:DISL:KATA:1,2016-01-02T23:00:00Z,30.2583,-88.2131,4.049,19.97,1111122 
DISL,ioos:station:DISL:KATA:1,2016-01-02T23:30:00Z,30.2583,-88.2131,4.054,20.37,1111122 
DISL,ioos:station:DISL:KATA:1,2016-01-03T00:00:00Z,30.2583,-88.2131,4.075,20.65,1111122 
DISL,ioos:station:DISL:KATA:1,2016-01-03T00:30:00Z,30.2583,-88.2131,4.087,19.85,1111122 
DISL,ioos:station:DISL:KATA:1,2016-01-03T01:00:00Z,30.2583,-88.2131,4.063,24.18,1111122 
DISL,ioos:station:DISL:KATA:1,2016-01-03T01:30:00Z,30.2583,-88.2131,4.068,24.25,1111122 
DISL,ioos:station:DISL:KATA:1,2016-01-03T02:00:00Z,30.2583,-88.2131,4.045,24.7,1111122 
DISL,ioos:station:DISL:KATA:1,2016-01-03T02:30:00Z,30.2583,-88.2131,4.02,23.94,1111122 
DISL,ioos:station:DISL:KATA:1,2016-01-03T03:00:00Z,30.2583,-88.2131,4.044,23.85,1111122 
DISL,ioos:station:DISL:KATA:1,2016-01-03T03:30:00Z,30.2583,-88.2131,4.03,23.98,1111122 
DISL,ioos:station:DISL:KATA:1,2016-01-03T04:00:00Z,30.2583,-88.2131,4.013,23.93,1111122 
DISL,ioos:station:DISL:KATA:1,2016-01-03T04:30:00Z,30.2583,-88.2131,4.015,23.83,1111122 
DISL,ioos:station:DISL:KATA:1,2016-01-03T05:00:00Z,30.2583,-88.2131,3.979,23.8,1111122 
DISL,ioos:station:DISL:KATA:1,2016-01-03T05:30:00Z,30.2583,-88.2131,3.964,23.62,1111122 
DISL,ioos:station:DISL:KATA:1,2016-01-03T06:00:00Z,30.2583,-88.2131,3.938,23.44,1111122 
DISL,ioos:station:DISL:KATA:1,2016-01-03T06:30:00Z,30.2583,-88.2131,3.936,23.59,1111122 
DISL,ioos:station:DISL:KATA:1,2016-01-03T07:00:00Z,30.2583,-88.2131,3.899,23.65,1111122 
DISL,ioos:station:DISL:KATA:1,2016-01-03T07:30:00Z,30.2583,-88.2131,3.891,22.94,1111122 
DISL,ioos:station:DISL:KATA:1,2016-01-03T08:00:00Z,30.2583,-88.2131,3.877,24.48,1111122 
DISL,ioos:station:DISL:KATA:1,2016-01-03T08:30:00Z,30.2583,-88.2131,3.873,24.39,1111122 
DISL,ioos:station:DISL:KATA:1,2016-01-03T09:00:00Z,30.2583,-88.2131,3.887,23.33,1111122 
DISL,ioos:station:DISL:KATA:1,2016-01-03T09:30:00Z,30.2583,-88.2131,3.883,23.22,1111122 
DISL,ioos:station:DISL:KATA:1,2016-01-03T10:00:00Z,30.2583,-88.2131,3.886,22.82,1111122 
DISL,ioos:station:DISL:KATA:1,2016-01-03T10:30:00Z,30.2583,-88.2131,3.895,22.56,1111122 
DISL,ioos:station:DISL:KATA:1,2016-01-03T11:00:00Z,30.2583,-88.2131,3.865,22.26,1111122 
DISL,ioos:station:DISL:KATA:1,2016-01-03T11:30:00Z,30.2583,-88.2131,3.851,22.21,1111122 
DISL,ioos:station:DISL:KATA:1,2016-01-03T12:00:00Z,30.2583,-88.2131,3.829,22.16,1111122 
DISL,ioos:station:DISL:KATA:1,2016-01-03T12:30:00Z,30.2583,-88.2131,3.835,22.05,1111122 
DISL,ioos:station:DISL:KATA:1,2016-01-03T13:00:00Z,30.2583,-88.2131,3.836,22.09,1111122 
DISL,ioos:station:DISL:KATA:1,2016-01-03T13:30:00Z,30.2583,-88.2131,3.861,22.0,1111122 
DISL,ioos:station:DISL:KATA:1,2016-01-03T14:00:00Z,30.2583,-88.2131,3.896,21.86,1111122 
DISL,ioos:station:DISL:KATA:1,2016-01-03T14:30:00Z,30.2583,-88.2131,3.927,21.87,1111122 
DISL,ioos:station:DISL:KATA:1,2016-01-03T15:00:00Z,30.2583,-88.2131,3.953,21.93,1111122 
DISL,ioos:station:DISL:KATA:1,2016-01-03T15:30:00Z,30.2583,-88.2131,3.975,21.9,1111122 
DISL,ioos:station:DISL:KATA:1,2016-01-03T16:00:00Z,30.2583,-88.2131,3.993,21.86,1111122 
DISL,ioos:station:DISL:KATA:1,2016-01-03T16:30:00Z,30.2583,-88.2131,4.028,21.86,1111122 
DISL,ioos:station:DISL:KATA:1,2016-01-03T17:00:00Z,30.2583,-88.2131,4.022,21.91,1111122 
DISL,ioos:station:DISL:KATA:1,2016-01-03T17:30:00Z,30.2583,-88.2131,4.021,21.46,1111122 
DISL,ioos:station:DISL:KATA:1,2016-01-03T18:00:00Z,30.2583,-88.2131,4.01,20.73,1111122 
DISL,ioos:station:DISL:KATA:1,2016-01-03T18:30:00Z,30.2583,-88.2131,4.036,20.89,1111122 
DISL,ioos:station:DISL:KATA:1,2016-01-03T19:00:00Z,30.2583,-88.2131,4.069,20.91,1111122 
DISL,ioos:station:DISL:KATA:1,2016-01-03T19:30:00Z,30.2583,-88.2131,4.084,20.91,1111122 
DISL,ioos:station:DISL:KATA:1,2016-01-03T20:00:00Z,30.2583,-88.2131,4.129,20.77,1111122 
DISL,ioos:station:DISL:KATA:1,2016-01-03T20:30:00Z,30.2583,-88.2131,4.158,20.68,1111122 
DISL,ioos:station:DISL:KATA:1,2016-01-03T21:00:00Z,30.2583,-88.2131,4.17,20.63,1111122 
DISL,ioos:station:DISL:KATA:1,2016-01-03T21:30:00Z,30.2583,-88.2131,4.189,20.61,1111122 
DISL,ioos:station:DISL:KATA:1,2016-01-03T22:00:00Z,30.2583,-88.2131,4.202,20.39,1111122 
DISL,ioos:station:DISL:KATA:1,2016-01-03T22:30:00Z,30.2583,-88.2131,4.196,20.56,1111122 
DISL,ioos:station:DISL:KATA:1,2016-01-03T23:00:00Z,30.2583,-88.2131,4.196,20.8,1111122 
DISL,ioos:station:DISL:KATA:1,2016-01-03T23:30:00Z,30.2583,-88.2131,4.169,20.54,1111122 
DISL,ioos:station:DISL:KATA:1,2016-01-04T00:00:00Z,30.2583,-88.2131,4.15,21.92,1111122 
DISL,ioos:station:DISL:KATA:1,2016-01-04T00:30:00Z,30.2583,-88.2131,4.15,21.6,1111122 
DISL,ioos:station:DISL:KATA:1,2016-01-04T01:00:00Z,30.2583,-88.2131,4.142,21.78,1111122 
DISL,ioos:station:DISL:KATA:1,2016-01-04T01:30:00Z,30.2583,-88.2131,4.144,21.67,1111122 
DISL,ioos:station:DISL:KATA:1,2016-01-04T02:00:00Z,30.2583,-88.2131,4.131,21.08,1111122 
DISL,ioos:station:DISL:KATA:1,2016-01-04T02:30:00Z,30.2583,-88.2131,4.109,21.06,1111122 
DISL,ioos:station:DISL:KATA:1,2016-01-04T03:00:00Z,30.2583,-88.2131,4.09,20.42,1111122 
DISL,ioos:station:DISL:KATA:1,2016-01-04T03:30:00Z,30.2583,-88.2131,4.052,20.81,1111122 
DISL,ioos:station:DISL:KATA:1,2016-01-04T04:00:00Z,30.2583,-88.2131,4.023,20.69,1111122 
DISL,ioos:station:DISL:KATA:1,2016-01-04T04:30:00Z,30.2583,-88.2131,4.009,20.67,1111122 
DISL,ioos:station:DISL:KATA:1,2016-01-04T05:00:00Z,30.2583,-88.2131,3.978,20.72,1111122 
DISL,ioos:station:DISL:KATA:1,2016-01-04T05:30:00Z,30.2583,-88.2131,3.955,20.73,1111122 
DISL,ioos:station:DISL:KATA:1,2016-01-04T06:00:00Z,30.2583,-88.2131,3.934,20.73,1111122 
DISL,ioos:station:DISL:KATA:1,2016-01-04T06:30:00Z,30.2583,-88.2131,3.9,20.69,1111122 
DISL,ioos:station:DISL:KATA:1,2016-01-04T07:00:00Z,30.2583,-88.2131,3.863,21.72,1111122 
DISL,ioos:station:DISL:KATA:1,2016-01-04T07:30:00Z,30.2583,-88.2131,3.83,21.06,1111122 
DISL,ioos:station:DISL:KATA:1,2016-01-04T08:00:00Z,30.2583,-88.2131,3.81,21.17,1111122 
DISL,ioos:station:DISL:KATA:1,2016-01-04T08:30:00Z,30.2583,-88.2131,3.798,21.07,1111122 
DISL,ioos:station:DISL:KATA:1,2016-01-04T09:00:00Z,30.2583,-88.2131,3.79,21.08,1111122 
DISL,ioos:station:DISL:KATA:1,2016-01-04T09:30:00Z,30.2583,-88.2131,3.783,20.56,1111122 
DISL,ioos:station:DISL:KATA:1,2016-01-04T10:00:00Z,30.2583,-88.2131,3.754,20.42,1111122 
DISL,ioos:station:DISL:KATA:1,2016-01-04T10:30:00Z,30.2583,-88.2131,3.717,20.42,1111122 
DISL,ioos:station:DISL:KATA:1,2016-01-04T11:00:00Z,30.2583,-88.2131,3.704,20.45,1111122 
DISL,ioos:station:DISL:KATA:1,2016-01-04T11:30:00Z,30.2583,-88.2131,3.711,21.18,1111122 
DISL,ioos:station:DISL:KATA:1,2016-01-04T12:00:00Z,30.2583,-88.2131,3.729,20.65,1111122 
DISL,ioos:station:DISL:KATA:1,2016-01-04T12:30:00Z,30.2583,-88.2131,3.772,21.2,1111122 
DISL,ioos:station:DISL:KATA:1,2016-01-04T13:00:00Z,30.2583,-88.2131,3.792,21.26,1111122 
DISL,ioos:station:DISL:KATA:1,2016-01-04T13:30:00Z,30.2583,-88.2131,3.799,21.27,1111122 
DISL,ioos:station:DISL:KATA:1,2016-01-04T14:00:00Z,30.2583,-88.2131,3.834,21.29,1111122 
DISL,ioos:station:DISL:KATA:1,2016-01-04T14:30:00Z,30.2583,-88.2131,3.852,21.29,1111122 
DISL,ioos:station:DISL:KATA:1,2016-01-04T15:00:00Z,30.2583,-88.2131,3.844,21.21,1111122 
DISL,ioos:station:DISL:KATA:1,2016-01-04T15:30:00Z,30.2583,-88.2131,3.848,21.21,1111122 
DISL,ioos:station:DISL:KATA:1,2016-01-04T16:00:00Z,30.2583,-88.2131,3.862,22.17,1111122 
DISL,ioos:station:DISL:KATA:1,2016-01-04T16:30:00Z,30.2583,-88.2131,3.89,21.17,1111122 
DISL,ioos:station:DISL:KATA:1,2016-01-04T17:00:00Z,30.2583,-88.2131,3.93,21.19,1111122 
DISL,ioos:station:DISL:KATA:1,2016-01-04T17:30:00Z,30.2583,-88.2131,3.958,21.19,1111122 
DISL,ioos:station:DISL:KATA:1,2016-01-04T18:00:00Z,30.2583,-88.2131,3.97,21.21,1111122 
DISL,ioos:station:DISL:KATA:1,2016-01-04T18:30:00Z,30.2583,-88.2131,3.983,21.2,1111122 
DISL,ioos:station:DISL:KATA:1,2016-01-04T19:00:00Z,30.2583,-88.2131,4.008,21.28,1111122 
DISL,ioos:station:DISL:KATA:1,2016-01-04T19:30:00Z,30.2583,-88.2131,4.038,21.21,1111122 
DISL,ioos:station:DISL:KATA:1,2016-01-04T20:00:00Z,30.2583,-88.2131,4.068,21.26,1111122 
DISL,ioos:station:DISL:KATA:1,2016-01-04T20:30:00Z,30.2583,-88.2131,4.087,21.28,1111122 
DISL,ioos:station:DISL:KATA:1,2016-01-04T21:00:00Z,30.2583,-88.2131,4.104,21.42,1111122 
DISL,ioos:station:DISL:KATA:1,2016-01-04T21:30:00Z,30.2583,-88.2131,4.133,21.56,1111122 
DISL,ioos:station:DISL:KATA:1,2016-01-04T22:00:00Z,30.2583,-88.2131,4.125,22.19,1111122 
DISL,ioos:station:DISL:KATA:1,2016-01-04T22:30:00Z,30.2583,-88.2131,4.113,22.06,1111122 
DISL,ioos:station:DISL:KATA:1,2016-01-04T23:00:00Z,30.2583,-88.2131,4.112,21.94,1111122 
DISL,ioos:station:DISL:KATA:1,2016-01-04T23:30:00Z,30.2583,-88.2131,4.086,22.16,1111122 
DISL,ioos:station:DISL:KATA:1,2016-01-05T00:00:00Z,30.2583,-88.2131,4.06,22.35,1111122 
DISL,ioos:station:DISL:KATA:1,2016-01-05T00:30:00Z,30.2583,-88.2131,4.069,22.36,1111122 
DISL,ioos:station:DISL:KATA:1,2016-01-05T01:00:00Z,30.2583,-88.2131,4.036,22.31,1111122 
DISL,ioos:station:DISL:KATA:1,2016-01-05T01:30:00Z,30.2583,-88.2131,4.021,22.44,1111122 
DISL,ioos:station:DISL:KATA:1,2016-01-05T02:00:00Z,30.2583,-88.2131,4.011,22.03,1111122 
DISL,ioos:station:DISL:KATA:1,2016-01-05T02:30:00Z,30.2583,-88.2131,3.976,22.33,1111122 
DISL,ioos:station:DISL:KATA:1,2016-01-05T03:00:00Z,30.2583,-88.2131,3.947,22.38,1111122 
DISL,ioos:station:DISL:KATA:1,2016-01-05T03:30:00Z,30.2583,-88.2131,3.95,22.21,1111122 
DISL,ioos:station:DISL:KATA:1,2016-01-05T04:00:00Z,30.2583,-88.2131,3.954,22.11,1111122 
DISL,ioos:station:DISL:KATA:1,2016-01-05T04:30:00Z,30.2583,-88.2131,3.954,21.43,1111122 
DISL,ioos:station:DISL:KATA:1,2016-01-05T05:00:00Z,30.2583,-88.2131,3.935,21.97,1111122 
DISL,ioos:station:DISL:KATA:1,2016-01-05T05:30:00Z,30.2583,-88.2131,3.888,21.66,1111122 
DISL,ioos:station:DISL:KATA:1,2016-01-05T06:00:00Z,30.2583,-88.2131,3.856,20.51,1111122 
DISL,ioos:station:DISL:KATA:1,2016-01-05T06:30:00Z,30.2583,-88.2131,3.825,21.39,1111122 
DISL,ioos:station:DISL:KATA:1,2016-01-05T07:00:00Z,30.2583,-88.2131,3.809,21.15,1111122 
DISL,ioos:station:DISL:KATA:1,2016-01-05T07:30:00Z,30.2583,-88.2131,3.844,21.17,1111122 
DISL,ioos:station:DISL:KATA:1,2016-01-05T08:00:00Z,30.2583,-88.2131,3.763,21.75,1111122 
DISL,ioos:station:DISL:KATA:1,2016-01-05T08:30:00Z,30.2583,-88.2131,3.757,21.28,1111122 
DISL,ioos:station:DISL:KATA:1,2016-01-05T09:00:00Z,30.2583,-88.2131,3.759,21.0,1111122 
DISL,ioos:station:DISL:KATA:1,2016-01-05T09:30:00Z,30.2583,-88.2131,3.755,21.72,1111122 
DISL,ioos:station:DISL:KATA:1,2016-01-05T10:00:00Z,30.2583,-88.2131,3.757,21.35,1111122 
DISL,ioos:station:DISL:KATA:1,2016-01-05T10:30:00Z,30.2583,-88.2131,3.756,21.82,1111122 
DISL,ioos:station:DISL:KATA:1,2016-01-05T11:00:00Z,30.2583,-88.2131,3.77,21.33,1111122 
DISL,ioos:station:DISL:KATA:1,2016-01-05T11:30:00Z,30.2583,-88.2131,3.772,21.31,1111122 
DISL,ioos:station:DISL:KATA:1,2016-01-05T12:00:00Z,30.2583,-88.2131,3.772,21.5,1111122 
DISL,ioos:station:DISL:KATA:1,2016-01-05T12:30:00Z,30.2583,-88.2131,3.753,21.84,1111122 
DISL,ioos:station:DISL:KATA:1,2016-01-05T13:00:00Z,30.2583,-88.2131,3.752,21.7,1111122 
DISL,ioos:station:DISL:KATA:1,2016-01-05T13:30:00Z,30.2583,-88.2131,3.732,21.68,1111122 
DISL,ioos:station:DISL:KATA:1,2016-01-05T14:00:00Z,30.2583,-88.2131,3.738,21.7,1111122 
DISL,ioos:station:DISL:KATA:1,2016-01-05T14:30:00Z,30.2583,-88.2131,3.741,20.92,1111122 
DISL,ioos:station:DISL:KATA:1,2016-01-05T15:00:00Z,30.2583,-88.2131,3.758,21.41,1111122 
DISL,ioos:station:DISL:KATA:1,2016-01-05T15:30:00Z,30.2583,-88.2131,3.792,21.08,1111122 
DISL,ioos:station:DISL:KATA:1,2016-01-05T16:00:00Z,30.2583,-88.2131,3.828,21.05,1111122 
DISL,ioos:station:DISL:KATA:1,2016-01-05T16:30:00Z,30.2583,-88.2131,3.85,20.6,1111122 
DISL,ioos:station:DISL:KATA:1,2016-01-05T17:00:00Z,30.2583,-88.2131,3.875,20.24,1111122 
DISL,ioos:station:DISL:KATA:1,2016-01-05T17:30:00Z,30.2583,-88.2131,3.914,20.07,1111122 
DISL,ioos:station:DISL:KATA:1,2016-01-05T18:00:00Z,30.2583,-88.2131,3.943,20.79,1111122 
DISL,ioos:station:DISL:KATA:1,2016-01-05T18:30:00Z,30.2583,-88.2131,3.984,21.51,1111122 
DISL,ioos:station:DISL:KATA:1,2016-01-05T19:00:00Z,30.2583,-88.2131,4.015,22.73,1111122 
DISL,ioos:station:DISL:KATA:1,2016-01-05T19:30:00Z,30.2583,-88.2131,4.045,23.97,1111122 
DISL,ioos:station:DISL:KATA:1,2016-01-05T20:00:00Z,30.2583,-88.2131,4.071,24.5,1111122 
DISL,ioos:station:DISL:KATA:1,2016-01-05T20:30:00Z,30.2583,-88.2131,4.102,25.39,1111122 
DISL,ioos:station:DISL:KATA:1,2016-01-05T21:00:00Z,30.2583,-88.2131,4.13,26.05,1111122 
DISL,ioos:station:DISL:KATA:1,2016-01-05T21:30:00Z,30.2583,-88.2131,4.158,26.89,1111122 
DISL,ioos:station:DISL:KATA:1,2016-01-05T22:00:00Z,30.2583,-88.2131,4.177,27.25,1111122 
DISL,ioos:station:DISL:KATA:1,2016-01-05T22:30:00Z,30.2583,-88.2131,4.182,28.21,1111122 
DISL,ioos:station:DISL:KATA:1,2016-01-05T23:00:00Z,30.2583,-88.2131,4.212,28.25,1111122 
DISL,ioos:station:DISL:KATA:1,2016-01-05T23:30:00Z,30.2583,-88.2131,4.234,28.54,1111122 
DISL,ioos:station:DISL:KATA:1,2016-01-06T00:00:00Z,30.2583,-88.2131,4.253,28.26,1111122 
DISL,ioos:station:DISL:KATA:1,2016-01-06T00:30:00Z,30.2583,-88.2131,4.253,28.82,1111122 
DISL,ioos:station:DISL:KATA:1,2016-01-06T01:00:00Z,30.2583,-88.2131,4.251,27.81,1111122 
DISL,ioos:station:DISL:KATA:1,2016-01-06T01:30:00Z,30.2583,-88.2131,4.232,27.75,1111122 
DISL,ioos:station:DISL:KATA:1,2016-01-06T02:00:00Z,30.2583,-88.2131,4.214,27.9,1111122 
DISL,ioos:station:DISL:KATA:1,2016-01-06T02:30:00Z,30.2583,-88.2131,4.191,27.64,1111122 
DISL,ioos:station:DISL:KATA:1,2016-01-06T03:00:00Z,30.2583,-88.2131,4.148,27.54,1111122 
DISL,ioos:station:DISL:KATA:1,2016-01-06T03:30:00Z,30.2583,-88.2131,4.085,28.17,1111122 
DISL,ioos:station:DISL:KATA:1,2016-01-06T04:00:00Z,30.2583,-88.2131,4.059,27.77,1111122 
DISL,ioos:station:DISL:KATA:1,2016-01-06T04:30:00Z,30.2583,-88.2131,4.028,27.49,1111122 
DISL,ioos:station:DISL:KATA:1,2016-01-06T05:00:00Z,30.2583,-88.2131,4.004,27.62,1111122 
DISL,ioos:station:DISL:KATA:1,2016-01-06T05:30:00Z,30.2583,-88.2131,3.968,27.67,1111122 
DISL,ioos:station:DISL:KATA:1,2016-01-06T06:00:00Z,30.2583,-88.2131,3.928,27.83,1111122 
DISL,ioos:station:DISL:KATA:1,2016-01-06T06:30:00Z,30.2583,-88.2131,3.894,27.91,1111122 
DISL,ioos:station:DISL:KATA:1,2016-01-06T07:00:00Z,30.2583,-88.2131,3.871,27.86,1111122 
DISL,ioos:station:DISL:KATA:1,2016-01-06T07:30:00Z,30.2583,-88.2131,3.833,28.47,1111122 
DISL,ioos:station:DISL:KATA:1,2016-01-06T08:00:00Z,30.2583,-88.2131,3.83,28.01,1111122 
DISL,ioos:station:DISL:KATA:1,2016-01-06T08:30:00Z,30.2583,-88.2131,3.812,27.65,1111122 
DISL,ioos:station:DISL:KATA:1,2016-01-06T09:00:00Z,30.2583,-88.2131,3.808,27.92,1111122 
DISL,ioos:station:DISL:KATA:1,2016-01-06T09:30:00Z,30.2583,-88.2131,3.807,28.02,1111122 
DISL,ioos:station:DISL:KATA:1,2016-01-06T10:00:00Z,30.2583,-88.2131,3.8,28.15,1111122 
DISL,ioos:station:DISL:KATA:1,2016-01-06T10:30:00Z,30.2583,-88.2131,3.794,28.7,1111122 
DISL,ioos:station:DISL:KATA:1,2016-01-06T11:00:00Z,30.2583,-88.2131,3.769,27.68,1111122 
DISL,ioos:station:DISL:KATA:1,2016-01-06T11:30:00Z,30.2583,-88.2131,3.747,28.96,1111122 
DISL,ioos:station:DISL:KATA:1,2016-01-06T12:00:00Z,30.2583,-88.2131,3.729,29.02,1111122 
DISL,ioos:station:DISL:KATA:1,2016-01-06T12:30:00Z,30.2583,-88.2131,3.71,29.12,1111122 
DISL,ioos:station:DISL:KATA:1,2016-01-06T13:00:00Z,30.2583,-88.2131,3.701,28.84,1111122 
DISL,ioos:station:DISL:KATA:1,2016-01-06T13:30:00Z,30.2583,-88.2131,3.71,28.78,1111122 
DISL,ioos:station:DISL:KATA:1,2016-01-06T14:00:00Z,30.2583,-88.2131,3.714,29.75,1111122 